Regional Weather Roundup
Issued by NWS

Home | Current Version | Previous Version | Text Only | Print | Product List | Glossary On
Versions: 1 2 3 4 5 6 7 8 9 10 11 12 13 14 15 16 17 18 19 20 21 22 23 24 25 26 27 28 29 30 31 32 33 34 35 36 37 38 39 40 41 42 43 44 45 46 47 48 49 50
000
ASUS43 KFSD 051702
RWRSD

WEATHER ROUNDUP FOR SOUTH DAKOTA
NATIONAL WEATHER SERVICE SIOUX FALLS SD
1100 AM CST THU MAR 05 2015

NOTE: "FAIR" INDICATES FEW OR NO CLOUDS BELOW 12,000 FEET WITH NO
SIGNIFICANT WEATHER AND/OR OBSTRUCTIONS TO VISIBILITY.


SDZ001>005-009-010-012>017-051800-
NORTHWEST AND NORTH CENTRAL SOUTH DAKOTA

CITY           SKY/WX    TMP DP  RH WIND       PRES   REMARKS
BUFFALO          N/A     33  10  38 W21       30.00S WCI  21
FAITH            N/A     25   6  44 S16       30.11F WCI  12
MOBRIDGE       SUNNY     16   4  59 SE14      30.18F WCI   2
$$

SDZ012>016-024>037-041>051-057-063-072>074-051800-
SOUTHWEST AND SOUTH CENTRAL SOUTH DAKOTA

CITY           SKY/WX    TMP DP  RH WIND       PRES   REMARKS
RAPID CTY ARPT SUNNY     27  14  58 E5        30.12F WCI  22
PIERRE         SUNNY     12   4  70 SE10      30.26F WCI  -1
CUSTER         MOSUNNY   31   5  33 NW15G23   30.06R WCI  20
ELLSWORTH AFB  SUNNY     34  10  37 SE3       30.11S
PHILIP         SUNNY     20   8  60 SW9       30.21F WCI   9
PINE RIDGE     PTSUNNY   23   7  50 W12       30.19F WCI  12
SPEARFISH      FAIR      34   9  35 W15G22    30.10S WCI  24
WINNER         FAIR      22   7  52 S14       30.27F WCI   9
$$

SDZ004>011-016>023-039-040-051800-
NORTHEAST SOUTH DAKOTA

CITY           SKY/WX    TMP DP  RH WIND       PRES   REMARKS
ABERDEEN       SUNNY      7  -3  64 S15       30.35F WCI -10
WATERTOWN      SUNNY      4  -5  66 S12       30.34F WCI -12
SISSETON         N/A     11  -1  58 SW13      30.37F WCI  -4
$$

SDZ017-020-022-023-036>040-048>070-051800-
SOUTHEAST SOUTH DAKOTA

CITY           SKY/WX    TMP DP  RH WIND       PRES   REMARKS
SIOUX FALLS    SUNNY     12   0  58 S8        30.44F WCI   0
HURON          SUNNY     13   3  64 S13       30.38F WCI  -2
MITCHELL       SUNNY     17   5  59 S12       30.41F WCI   4
YANKTON        SUNNY     21   3  45 S7        30.45F WCI  13
$$

ABBREVIATIONS USED IN REMARKS
   TC - TEMPERATURE IN CELSIUS
  WCI - WIND CHILL INDEX
   HX - HEAT INDEX
  VSB - VISIBILITY



USA.gov is the U.S. government's official web portal to all federal, state and local government web resources and services.